Sacramento International, CA

5:26 PM PDT on June 25, 2017 (GMT -0700)
Sacramento International

Weather History for KSMF - July, 2013

Change the Weather History Date:

Saturday, July 6, 2013

  Actual Average Record
Temperature  
Mean Temperature 73 °F -  
Max Temperature 89 °F 90 °F 104 °F (1989)
Min Temperature 57 °F 57 °F 49 °F (1955)
Cooling Degree Days 8    
Growing Degree Days 23 (Base 50)    
Moisture  
Dew Point 55 °F    
Average Humidity 59    
Maximum Humidity 84    
Minimum Humidity 31    
Precipitation  
Precipitation 0.00 in - - ()
Sea Level Pressure  
Sea Level Pressure 29.71 in    
Wind  
Wind Speed 11 mph (South)    
Max Wind Speed 15 mph    
Max Gust Speed -    
Visibility 10 miles    
Events      
Averages and records for this station are not official NWS values.
T = Trace of Precipitation, MM = Missing Value Source: NWS Daily Summary

Daily Weather History Graph

Daily Weather History Graph

Search for Another Location

Airport or City:

Trip Planner

Search our weather history database for the weather conditions in past years. The results will help you decide how hot, cold, wet, or windy it might be!

Date:

Astronomy

Jul. 06, 2013 Rise Set
Actual Time 5:48 AM PDT 8:33 PM PDT
Civil Twilight 5:16 AM PDT 9:05 PM PDT
Nautical Twilight 4:37 AM PDT 9:44 PM PDT
Astronomical Twilight 3:52 AM PDT 10:29 PM PDT
Moon 4:37 AM PDT (7/6) 7:20 PM PDT (7/6)
Length of Visible Light 15h 48m
Length of Day
14h 45m
Waning Crescent, 2% of the Moon is Illuminated
Jul 6
Waning Crescent
Jul 8
New
Jul 15
First Quarter
Jul 22
Full
Jul 29
Last Quarter

Hourly Weather History & Observations

Time (PDT) Temp. Heat Index Dew Point Humidity Pressure Visibility Wind Dir Wind Speed Gust Speed Precip Events Conditions
12:53 AM 61.0 °F - 53.1 °F 75% 29.68 in 10.0 mi South 12.7 mph - N/A   Clear
1:53 AM 60.1 °F - 52.0 °F 75% 29.68 in 10.0 mi South 15.0 mph - N/A   Clear
2:53 AM 59.0 °F - 53.1 °F 81% 29.69 in 10.0 mi South 13.8 mph - N/A   Clear
3:53 AM 57.9 °F - 53.1 °F 84% 29.69 in 10.0 mi South 9.2 mph - N/A   Clear
4:53 AM 57.9 °F - 53.1 °F 84% 29.70 in 10.0 mi South 10.4 mph - N/A   Clear
5:53 AM 57.9 °F - 53.1 °F 84% 29.72 in 8.0 mi South 8.1 mph - N/A   Clear
6:53 AM 59.0 °F - 54.0 °F 83% 29.73 in 8.0 mi SSE 9.2 mph - N/A   Clear
7:53 AM 62.1 °F - 54.0 °F 75% 29.74 in 8.0 mi South 8.1 mph - N/A   Clear
8:53 AM 66.0 °F - 55.0 °F 68% 29.75 in 8.0 mi South 8.1 mph - N/A   Clear
9:53 AM 72.0 °F - 57.0 °F 59% 29.75 in 10.0 mi South 8.1 mph - N/A   Clear
10:53 AM 75.0 °F - 57.0 °F 53% 29.75 in 10.0 mi South 10.4 mph - N/A   Clear
11:53 AM 79.0 °F - 57.0 °F 47% 29.75 in 10.0 mi South 9.2 mph - N/A   Clear
12:53 PM 82.0 °F 81.7 °F 57.0 °F 42% 29.74 in 10.0 mi SSW 8.1 mph - N/A   Clear
1:53 PM 82.9 °F 82.4 °F 57.0 °F 41% 29.73 in 10.0 mi SSW 9.2 mph - N/A   Clear
2:53 PM 86.0 °F 84.7 °F 55.9 °F 36% 29.70 in 10.0 mi SSW 8.1 mph - N/A   Clear
3:53 PM 86.0 °F 84.5 °F 55.0 °F 35% 29.69 in 10.0 mi South 10.4 mph - N/A   Clear
4:53 PM 89.1 °F 87.1 °F 55.0 °F 31% 29.68 in 10.0 mi South 10.4 mph - N/A   Clear
5:53 PM 87.1 °F 85.1 °F 54.0 °F 32% 29.66 in 10.0 mi South 12.7 mph - N/A   Clear
6:53 PM 82.9 °F 81.9 °F 54.0 °F 37% 29.66 in 10.0 mi South 13.8 mph - N/A   Clear
7:53 PM 79.0 °F - 57.0 °F 47% 29.67 in 10.0 mi South 12.7 mph - N/A   Clear
8:53 PM 75.0 °F - 55.0 °F 50% 29.68 in 10.0 mi South 12.7 mph - N/A   Clear
9:53 PM 72.0 °F - 54.0 °F 53% 29.69 in 10.0 mi South 9.2 mph - N/A   Clear
10:53 PM 66.9 °F - 54.0 °F 63% 29.70 in 10.0 mi South 12.7 mph - N/A   Clear
11:53 PM 63.0 °F - 54.0 °F 72% 29.71 in 10.0 mi South 10.4 mph - N/A   Clear